Вернуться в каталог

STARLINK-35438

АктивенСвязьVLEO
NORAD 66347·PAYLOAD·🇺🇸 United States

Запущен Nov 6, 2025 с Cape Canaveral Space Force Station

Loading…

Ближайшие Пролёты (ближайшие 24 часа)

TLE

СвежийSource: CelesTrak SupGP

Эпоха: Sep 14, 2026, 21:21 UTC

1 66347C 25253AE  26257.89006944  .00037795  00000+0  13689-2 0  2571
2 66347  43.0024 223.6947 0001249 258.9641 103.6397 15.27560431    19

Отслеживайте STARLINK-35438 в реальном времени с AllMySat

Download on the App Store